Data No.,UTC Date,UTC Time,Latitude,Longitude,Course(deg),Temp(degC),Sal(psu),,,,,,,,,
21,2015/8/24,23:31:00,31-56.5300N,137-04.3800E,170,28.894,34.5452,,,,,,,,,
22,2015/8/24,23:32:00,31-56.3700N,137-04.3900E,176,28.885,34.5439,,,,,,,,,
23,2015/8/24,23:33:00,31-56.2200N,137-04.4100E,176,28.88,34.5428,,,,,,,,,
24,2015/8/24,23:34:00,31-56.0600N,137-04.4300E,169,28.874,34.5481,,,,,,,,,
25,2015/8/24,23:35:00,31-55.9000N,137-04.4600E,171,28.877,34.5528,,,,,,,,,
26,2015/8/24,23:36:00,31-55.7400N,137-04.4800E,172,28.864,34.5568,,,,,,,,,
27,2015/8/24,23:37:00,31-55.5900N,137-04.4900E,174,28.843,34.5476,,,,,,,,,
28,2015/8/24,23:38:00,31-55.4400N,137-04.5100E,172,28.844,34.5339,,,,,,,,,
29,2015/8/24,23:39:00,31-55.2800N,137-04.5200E,175,28.856,34.5459,,,,,,,,,
30,2015/8/24,23:40:00,31-55.1200N,137-04.5300E,177,28.874,34.5591,,,,,,,,,
31,2015/8/24,23:41:00,31-54.9600N,137-04.5400E,177,28.881,34.556,,,,,,,,,
32,2015/8/24,23:42:00,31-54.8000N,137-04.5600E,172,28.886,34.5676,,,,,,,,,
33,2015/8/24,23:43:00,31-54.6400N,137-04.5800E,175,28.881,34.5699,,,,,,,,,
34,2015/8/24,23:44:00,31-54.4800N,137-04.6100E,174,28.885,34.5674,,,,,,,,,
35,2015/8/24,23:45:00,31-54.3200N,137-04.6300E,172,28.879,34.5624,,,,,,,,,
36,2015/8/24,23:46:00,31-54.1600N,137-04.6500E,174,28.874,34.5626,,,,,,,,,
37,2015/8/24,23:47:00,31-54.0000N,137-04.6700E,174,28.884,34.5665,,,,,,,,,
38,2015/8/24,23:48:00,31-53.8400N,137-04.6900E,173,28.927,34.5821,,,,,,,,,
39,2015/8/24,23:49:00,31-53.6800N,137-04.7100E,173,28.994,34.5949,,,,,,,,,
40,2015/8/24,23:50:00,31-53.5100N,137-04.7300E,172,29.024,34.585,,,,,,,,,
41,2015/8/24,23:51:00,31-53.3600N,137-04.7500E,176,29.029,34.5905,,,,,,,,,
42,2015/8/24,23:52:00,31-53.2100N,137-04.7700E,170,29.029,34.5887,,,,,,,,,
43,2015/8/24,23:53:00,31-53.0600N,137-04.8200E,166,29.019,34.5886,,,,,,,,,
44,2015/8/24,23:54:00,31-52.9100N,137-04.8600E,165,29.009,34.5904,,,,,,,,,
45,2015/8/24,23:55:00,31-52.7600N,137-04.9200E,160,28.991,34.5641,,,,,,,,,
46,2015/8/24,23:56:00,31-52.6100N,137-04.9900E,156,28.984,34.5875,,,,,,,,,
47,2015/8/24,23:57:00,31-52.4600N,137-05.0500E,162,28.987,34.5816,,,,,,,,,
48,2015/8/24,23:58:00,31-52.3200N,137-05.1100E,161,28.997,34.5749,,,,,,,,,
49,2015/8/24,23:59:00,31-52.1700N,137-05.1700E,161,29.005,34.5666,,,,,,,,,
50,2015/8/25,0:00:00,31-52.0300N,137-05.2300E,162,29.016,34.5604,,,,,,,,,
51,2015/8/25,0:01:00,31-51.8800N,137-05.2900E,157,29.022,34.5439,,,,,,,,,
52,2015/8/25,0:02:00,31-51.7400N,137-05.3600E,159,29.028,34.5473,,,,,,,,,
53,2015/8/25,0:03:00,31-51.6000N,137-05.4300E,156,29.029,34.5367,,,,,,,,,
54,2015/8/25,0:04:00,31-51.4600N,137-05.4900E,161,29.03,34.5451,,,,,,,,,
55,2015/8/25,0:05:00,31-51.3100N,137-05.5500E,158,29.029,34.5437,,,,,,,,,
56,2015/8/25,0:06:00,31-51.1700N,137-05.6200E,158,29.023,34.5396,,,,,,,,,
57,2015/8/25,0:07:00,31-51.0200N,137-05.7000E,154,29.014,34.533,,,,,,,,,
58,2015/8/25,0:08:00,31-50.8700N,137-05.7800E,154,29.017,34.5282,,,,,,,,,
59,2015/8/25,0:09:00,31-50.7300N,137-05.8500E,160,29.038,34.5227,,,,,,,,,
60,2015/8/25,0:10:00,31-50.5800N,137-05.9200E,161,29.057,34.5159,,,,,,,,,
61,2015/8/25,0:11:00,31-50.4400N,137-05.9900E,159,29.067,34.5169,,,,,,,,,
62,2015/8/25,0:12:00,31-50.2900N,137-06.0500E,159,29.067,34.5163,,,,,,,,,
63,2015/8/25,0:13:00,31-50.1400N,137-06.1200E,156,29.07,34.4706,,,,,,,,,
64,2015/8/25,0:14:00,31-49.9900N,137-06.1900E,157,29.068,34.5191,,,,,,,,,
65,2015/8/25,0:15:00,31-49.8300N,137-06.2700E,157,29.063,34.5193,,,,,,,,,
66,2015/8/25,0:16:00,31-49.6700N,137-06.3300E,158,29.053,34.5017,,,,,,,,,
67,2015/8/25,0:17:00,31-49.5200N,137-06.4000E,160,29.043,34.5172,,,,,,,,,
68,2015/8/25,0:18:00,31-49.3700N,137-06.4600E,160,29.038,34.5227,,,,,,,,,
69,2015/8/25,0:19:00,31-49.2200N,137-06.5300E,160,29.032,34.5202,,,,,,,,,
70,2015/8/25,0:20:00,31-49.0700N,137-06.6000E,160,29.03,34.5316,,,,,,,,,
71,2015/8/25,0:21:00,31-48.9200N,137-06.6700E,156,29.024,34.534,,,,,,,,,
72,2015/8/25,0:22:00,31-48.7700N,137-06.7400E,161,29.027,34.531,,,,,,,,,
73,2015/8/25,0:23:00,31-48.6200N,137-06.8100E,158,29.025,34.5398,,,,,,,,,
74,2015/8/25,0:24:00,31-48.4700N,137-06.8800E,159,29.028,34.5393,,,,,,,,,
75,2015/8/25,0:25:00,31-48.3200N,137-06.9400E,160,29.043,34.5451,,,,,,,,,
76,2015/8/25,0:26:00,31-48.1800N,137-07.0000E,160,29.054,34.5483,,,,,,,,,
77,2015/8/25,0:27:00,31-48.0300N,137-07.0700E,158,29.055,34.5535,,,,,,,,,
78,2015/8/25,0:28:00,31-47.8900N,137-07.1400E,154,29.057,34.546,,,,,,,,,
79,2015/8/25,0:29:00,31-47.7400N,137-07.2300E,151,29.061,34.5604,,,,,,,,,
80,2015/8/25,0:30:00,31-47.6000N,137-07.3000E,157,29.066,34.5591,,,,,,,,,
81,2015/8/25,0:31:00,31-47.4600N,137-07.3800E,154,29.065,34.5562,,,,,,,,,
82,2015/8/25,0:32:00,31-47.3100N,137-07.4600E,155,29.066,34.5398,,,,,,,,,
83,2015/8/25,0:33:00,31-47.1600N,137-07.5400E,158,29.065,34.5437,,,,,,,,,
84,2015/8/25,0:34:00,31-47.0200N,137-07.6200E,153,29.057,34.5478,,,,,,,,,
85,2015/8/25,0:35:00,31-46.8700N,137-07.7000E,154,29.045,34.5428,,,,,,,,,
86,2015/8/25,0:36:00,31-46.7300N,137-07.7900E,155,29.038,34.5296,,,,,,,,,
87,2015/8/25,0:37:00,31-46.5800N,137-07.8600E,158,29.028,34.5404,,,,,,,,,
88,2015/8/25,0:38:00,31-46.4400N,137-07.9500E,152,29.018,34.5368,,,,,,,,,
89,2015/8/25,0:39:00,31-46.3000N,137-08.0200E,156,29.017,34.5364,,,,,,,,,
90,2015/8/25,0:40:00,31-46.1500N,137-08.1100E,153,29.037,34.5347,,,,,,,,,
91,2015/8/25,0:41:00,31-46.0100N,137-08.2000E,151,29.042,34.5325,,,,,,,,,
92,2015/8/25,0:42:00,31-45.8600N,137-08.2900E,152,29.039,34.5341,,,,,,,,,
93,2015/8/25,0:43:00,31-45.7200N,137-08.3700E,155,29.029,34.534,,,,,,,,,
94,2015/8/25,0:44:00,31-45.5700N,137-08.4400E,156,29.027,34.5278,,,,,,,,,
95,2015/8/25,0:45:00,31-45.4300N,137-08.5200E,150,29.029,34.5254,,,,,,,,,
96,2015/8/25,0:46:00,31-45.2900N,137-08.6100E,151,29.026,34.5165,,,,,,,,,
97,2015/8/25,0:47:00,31-45.1600N,137-08.6800E,151,29.021,34.5204,,,,,,,,,
98,2015/8/25,0:48:00,31-45.0100N,137-08.7700E,149,29.019,34.5212,,,,,,,,,
99,2015/8/25,0:49:00,31-44.8700N,137-08.8500E,151,29.015,34.5176,,,,,,,,,
100,2015/8/25,0:50:00,31-44.7300N,137-08.9400E,152,29.011,34.495,,,,,,,,,
101,2015/8/25,0:51:00,31-44.5900N,137-09.0200E,156,29.004,34.519,,,,,,,,,
102,2015/8/25,0:52:00,31-44.4500N,137-09.1000E,155,29.008,34.5188,,,,,,,,,
103,2015/8/25,0:53:00,31-44.3000N,137-09.1700E,156,29.007,34.5136,,,,,,,,,
104,2015/8/25,0:54:00,31-44.1600N,137-09.2500E,155,29.01,34.5131,,,,,,,,,
105,2015/8/25,0:55:00,31-44.0200N,137-09.3400E,152,29.033,34.4936,,,,,,,,,
106,2015/8/25,0:56:00,31-43.8700N,137-09.4200E,153,29.03,34.4995,,,,,,,,,
107,2015/8/25,0:57:00,31-43.7200N,137-09.5000E,154,29.012,34.4866,,,,,,,,,
108,2015/8/25,0:58:00,31-43.5700N,137-09.5800E,157,29.006,34.4962,,,,,,,,,
109,2015/8/25,0:59:00,31-43.4200N,137-09.6700E,153,29.007,34.5009,,,,,,,,,
110,2015/8/25,1:00:00,31-43.2700N,137-09.7600E,152,29.008,34.4728,,,,,,,,,
111,2015/8/25,1:01:00,31-43.1200N,137-09.8500E,154,29.009,34.5014,,,,,,,,,
112,2015/8/25,1:02:00,31-42.9700N,137-09.9300E,153,29.01,34.4968,,,,,,,,,
113,2015/8/25,1:03:00,31-42.8100N,137-10.0200E,156,29.013,34.5009,,,,,,,,,
114,2015/8/25,1:04:00,31-42.6600N,137-10.1100E,152,29.013,34.4986,,,,,,,,,
115,2015/8/25,1:05:00,31-42.5000N,137-10.2100E,152,29.015,34.496,,,,,,,,,
116,2015/8/25,1:06:00,31-42.3400N,137-10.3000E,154,29.015,34.4985,,,,,,,,,
117,2015/8/25,1:07:00,31-42.1900N,137-10.3800E,151,29.022,---,,,,,,,,,
118,2015/8/25,1:08:00,31-42.0400N,137-10.4600E,156,29.028,34.4954,,,,,,,,,
119,2015/8/25,1:09:00,31-41.8900N,137-10.5500E,153,29.03,34.4814,,,,,,,,,
120,2015/8/25,1:10:00,31-41.7400N,137-10.6400E,152,29.034,34.492,,,,,,,,,
121,2015/8/25,1:11:00,31-41.5900N,137-10.7200E,154,29.036,34.4927,,,,,,,,,
122,2015/8/25,1:12:00,31-41.4400N,137-10.8100E,154,29.039,34.4989,,,,,,,,,
123,2015/8/25,1:13:00,31-41.3000N,137-10.9000E,153,29.04,34.4931,,,,,,,,,
124,2015/8/25,1:14:00,31-41.1500N,137-10.9900E,152,29.043,34.4995,,,,,,,,,
125,2015/8/25,1:15:00,31-41.0000N,137-11.0700E,154,29.042,34.4984,,,,,,,,,
126,2015/8/25,1:16:00,31-40.8500N,137-11.1500E,156,29.044,34.4982,,,,,,,,,
127,2015/8/25,1:17:00,31-40.7000N,137-11.2400E,156,29.051,34.501,,,,,,,,,
128,2015/8/25,1:18:00,31-40.5500N,137-11.3100E,155,29.058,34.5042,,,,,,,,,
129,2015/8/25,1:19:00,31-40.4100N,137-11.4000E,151,29.063,34.4933,,,,,,,,,
130,2015/8/25,1:20:00,31-40.2600N,137-11.4900E,152,29.067,34.5077,,,,,,,,,
131,2015/8/25,1:21:00,31-40.1200N,137-11.5700E,153,29.07,34.5087,,,,,,,,,
132,2015/8/25,1:22:00,31-39.9700N,137-11.6500E,153,29.073,34.51,,,,,,,,,
133,2015/8/25,1:23:00,31-39.8300N,137-11.7300E,152,29.076,34.5124,,,,,,,,,
134,2015/8/25,1:24:00,31-39.6800N,137-11.8200E,153,29.075,34.4703,,,,,,,,,
135,2015/8/25,1:25:00,31-39.5300N,137-11.9000E,153,29.078,34.5116,,,,,,,,,
136,2015/8/25,1:26:00,31-39.3900N,137-11.9900E,153,29.081,34.5158,,,,,,,,,
137,2015/8/25,1:27:00,31-39.2400N,137-12.0700E,155,29.086,34.5172,,,,,,,,,
138,2015/8/25,1:28:00,31-39.0900N,137-12.1500E,156,29.093,34.5157,,,,,,,,,
139,2015/8/25,1:29:00,31-38.9400N,137-12.2200E,155,29.091,34.497,,,,,,,,,
140,2015/8/25,1:30:00,31-38.7800N,137-12.3100E,156,29.092,34.5151,,,,,,,,,
141,2015/8/25,1:31:00,31-38.6200N,137-12.3900E,154,29.094,34.5026,,,,,,,,,
142,2015/8/25,1:32:00,31-38.4600N,137-12.4700E,153,29.096,34.5127,,,,,,,,,
143,2015/8/25,1:33:00,31-38.3100N,137-12.5600E,155,29.095,34.514,,,,,,,,,
144,2015/8/25,1:34:00,31-38.1500N,137-12.6400E,156,29.093,34.5044,,,,,,,,,
145,2015/8/25,1:35:00,31-38.0000N,137-12.7200E,160,29.09,34.5135,,,,,,,,,
146,2015/8/25,1:36:00,31-37.8400N,137-12.7900E,157,29.085,34.5024,,,,,,,,,
147,2015/8/25,1:37:00,31-37.6800N,137-12.8800E,154,29.08,34.4985,,,,,,,,,
148,2015/8/25,1:38:00,31-37.5300N,137-12.9600E,153,29.076,34.4706,,,,,,,,,
149,2015/8/25,1:39:00,31-37.3700N,137-13.0500E,155,29.072,34.4996,,,,,,,,,
150,2015/8/25,1:40:00,31-37.2100N,137-13.1400E,156,29.061,34.4959,,,,,,,,,
151,2015/8/25,1:41:00,31-37.0600N,137-13.2100E,157,29.05,34.4799,,,,,,,,,
152,2015/8/25,1:42:00,31-36.9000N,137-13.2900E,159,29.033,34.4842,,,,,,,,,
153,2015/8/25,1:43:00,31-36.7500N,137-13.3600E,158,29.035,34.477,,,,,,,,,
154,2015/8/25,1:44:00,31-36.6000N,137-13.4400E,156,29.041,34.4815,,,,,,,,,
155,2015/8/25,1:45:00,31-36.4500N,137-13.5200E,155,29.041,---,,,,,,,,,
156,2015/8/25,1:46:00,31-36.3000N,137-13.6000E,154,29.043,34.478,,,,,,,,,
157,2015/8/25,1:47:00,31-36.1500N,137-13.6800E,156,29.043,34.4824,,,,,,,,,
158,2015/8/25,1:48:00,31-35.9900N,137-13.7600E,157,29.035,34.4731,,,,,,,,,
159,2015/8/25,1:49:00,31-35.8400N,137-13.8400E,158,29.029,34.478,,,,,,,,,
160,2015/8/25,1:50:00,31-35.6800N,137-13.9100E,155,29.025,34.4715,,,,,,,,,
161,2015/8/25,1:51:00,31-35.5300N,137-13.9800E,157,29.018,34.4804,,,,,,,,,
162,2015/8/25,1:52:00,31-35.3800N,137-14.0600E,156,29.005,34.478,,,,,,,,,
163,2015/8/25,1:53:00,31-35.2300N,137-14.1400E,157,28.988,34.4837,,,,,,,,,
164,2015/8/25,1:54:00,31-35.0900N,137-14.2200E,156,28.975,34.4756,,,,,,,,,
165,2015/8/25,1:55:00,31-34.9300N,137-14.3000E,158,28.966,34.4835,,,,,,,,,
166,2015/8/25,1:56:00,31-34.7700N,137-14.3800E,155,28.955,34.4842,,,,,,,,,
167,2015/8/25,1:57:00,31-34.6300N,137-14.4500E,154,28.937,34.4769,,,,,,,,,
168,2015/8/25,1:58:00,31-34.4800N,137-14.5300E,159,28.918,34.484,,,,,,,,,
169,2015/8/25,1:59:00,31-34.3300N,137-14.6100E,155,28.89,34.4808,,,,,,,,,
170,2015/8/25,2:00:00,31-34.1800N,137-14.6800E,154,28.881,34.4806,,,,,,,,,
171,2015/8/25,2:01:00,31-34.0300N,137-14.7700E,154,28.872,34.4834,,,,,,,,,
172,2015/8/25,2:02:00,31-33.8900N,137-14.8500E,154,28.871,34.4827,,,,,,,,,
173,2015/8/25,2:03:00,31-33.7400N,137-14.9300E,155,28.864,34.4841,,,,,,,,,
174,2015/8/25,2:04:00,31-33.5900N,137-15.0100E,156,28.863,34.4836,,,,,,,,,
175,2015/8/25,2:05:00,31-33.4400N,137-15.1000E,157,28.862,34.4816,,,,,,,,,
176,2015/8/25,2:06:00,31-33.2900N,137-15.1700E,156,28.859,34.482,,,,,,,,,
177,2015/8/25,2:07:00,31-33.1400N,137-15.2500E,156,28.855,34.4774,,,,,,,,,
178,2015/8/25,2:08:00,31-33.0000N,137-15.3300E,153,28.853,34.4797,,,,,,,,,
179,2015/8/25,2:09:00,31-32.8500N,137-15.4100E,155,28.845,34.4767,,,,,,,,,
180,2015/8/25,2:10:00,31-32.7100N,137-15.4900E,158,28.831,34.4746,,,,,,,,,
181,2015/8/25,2:11:00,31-32.5700N,137-15.5600E,154,28.819,34.4701,,,,,,,,,
182,2015/8/25,2:12:00,31-32.4200N,137-15.6400E,157,28.813,34.4695,,,,,,,,,
183,2015/8/25,2:13:00,31-32.2900N,137-15.7100E,157,28.806,34.467,,,,,,,,,
184,2015/8/25,2:14:00,31-32.1400N,137-15.7800E,156,28.795,34.4409,,,,,,,,,
185,2015/8/25,2:15:00,31-32.0000N,137-15.8500E,157,28.787,34.4603,,,,,,,,,
186,2015/8/25,2:16:00,31-31.8600N,137-15.9300E,154,28.775,34.4629,,,,,,,,,
187,2015/8/25,2:17:00,31-31.7200N,137-16.0100E,153,28.768,34.4464,,,,,,,,,
188,2015/8/25,2:18:00,31-31.5800N,137-16.0900E,152,28.758,34.4528,,,,,,,,,
189,2015/8/25,2:19:00,31-31.4300N,137-16.1600E,152,28.751,34.4594,,,,,,,,,
190,2015/8/25,2:20:00,31-31.2700N,137-16.2600E,151,28.736,34.4546,,,,,,,,,
191,2015/8/25,2:21:00,31-31.1200N,137-16.3400E,152,28.738,34.4489,,,,,,,,,
192,2015/8/25,2:22:00,31-30.9800N,137-16.4300E,153,28.735,34.4566,,,,,,,,,
193,2015/8/25,2:23:00,31-30.8400N,137-16.5000E,156,28.734,34.4471,,,,,,,,,
194,2015/8/25,2:24:00,31-30.6900N,137-16.5800E,155,28.725,34.4561,,,,,,,,,
195,2015/8/25,2:25:00,31-30.5400N,137-16.6600E,156,28.723,34.4558,,,,,,,,,
196,2015/8/25,2:26:00,31-30.3900N,137-16.7300E,156,28.716,34.4567,,,,,,,,,
197,2015/8/25,2:27:00,31-30.2400N,137-16.8000E,158,28.712,34.4601,,,,,,,,,
198,2015/8/25,2:28:00,31-30.1000N,137-16.8800E,152,28.709,34.4619,,,,,,,,,
199,2015/8/25,2:29:00,31-29.9600N,137-16.9700E,152,28.702,34.4409,,,,,,,,,
200,2015/8/25,2:30:00,31-29.8100N,137-17.0600E,156,28.688,34.4648,,,,,,,,,
201,2015/8/25,2:31:00,31-29.6700N,137-17.1400E,153,28.679,34.4465,,,,,,,,,
202,2015/8/25,2:32:00,31-29.5200N,137-17.2100E,157,28.673,34.451,,,,,,,,,
203,2015/8/25,2:33:00,31-29.3700N,137-17.2900E,155,28.665,34.4716,,,,,,,,,
204,2015/8/25,2:34:00,31-29.2200N,137-17.3700E,155,28.663,34.452,,,,,,,,,
205,2015/8/25,2:35:00,31-29.0700N,137-17.4600E,154,28.67,34.4745,,,,,,,,,
206,2015/8/25,2:36:00,31-28.9200N,137-17.5500E,150,28.687,34.4841,,,,,,,,,
207,2015/8/25,2:37:00,31-28.7700N,137-17.6300E,153,28.706,34.4849,,,,,,,,,
208,2015/8/25,2:38:00,31-28.6300N,137-17.7100E,155,28.72,34.5101,,,,,,,,,
209,2015/8/25,2:39:00,31-28.4800N,137-17.7900E,154,28.727,34.5208,,,,,,,,,
210,2015/8/25,2:40:00,31-28.3400N,137-17.8700E,152,28.733,34.5087,,,,,,,,,
211,2015/8/25,2:41:00,31-28.1900N,137-17.9500E,157,28.736,34.5292,,,,,,,,,
212,2015/8/25,2:42:00,31-28.0500N,137-18.0300E,154,28.742,34.5326,,,,,,,,,
213,2015/8/25,2:43:00,31-27.9100N,137-18.1100E,152,28.754,34.5344,,,,,,,,,
214,2015/8/25,2:44:00,31-27.7700N,137-18.1900E,153,28.765,34.5329,,,,,,,,,
215,2015/8/25,2:45:00,31-27.6200N,137-18.2700E,155,28.779,34.5347,,,,,,,,,
216,2015/8/25,2:46:00,31-27.4700N,137-18.3500E,154,28.792,34.5434,,,,,,,,,
217,2015/8/25,2:47:00,31-27.3200N,137-18.4300E,153,28.801,34.5505,,,,,,,,,
218,2015/8/25,2:48:00,31-27.1700N,137-18.5200E,154,28.813,34.5513,,,,,,,,,
219,2015/8/25,2:49:00,31-27.0300N,137-18.6100E,154,28.827,34.5526,,,,,,,,,
220,2015/8/25,2:50:00,31-26.8800N,137-18.6800E,157,28.839,34.5559,,,,,,,,,
221,2015/8/25,2:51:00,31-26.7200N,137-18.7700E,154,28.85,34.5303,,,,,,,,,
222,2015/8/25,2:52:00,31-26.5700N,137-18.8600E,153,28.866,34.5574,,,,,,,,,
223,2015/8/25,2:53:00,31-26.4200N,137-18.9500E,151,28.883,34.5392,,,,,,,,,
224,2015/8/25,2:54:00,31-26.2800N,137-19.0400E,154,28.893,34.5596,,,,,,,,,
225,2015/8/25,2:55:00,31-26.1300N,137-19.1200E,154,28.913,34.5597,,,,,,,,,
226,2015/8/25,2:56:00,31-25.9700N,137-19.2000E,155,28.928,34.5639,,,,,,,,,
227,2015/8/25,2:57:00,31-25.8200N,137-19.2800E,157,28.947,34.565,,,,,,,,,
228,2015/8/25,2:58:00,31-25.6700N,137-19.3700E,152,28.955,34.5648,,,,,,,,,
229,2015/8/25,2:59:00,31-25.5200N,137-19.4600E,155,28.961,34.5634,,,,,,,,,
230,2015/8/25,3:00:00,31-25.3700N,137-19.5500E,154,28.966,34.5593,,,,,,,,,
231,2015/8/25,3:01:00,31-25.2200N,137-19.6300E,154,28.966,34.5667,,,,,,,,,
232,2015/8/25,3:02:00,31-25.0700N,137-19.7200E,155,28.96,34.5643,,,,,,,,,
233,2015/8/25,3:03:00,31-24.9200N,137-19.8000E,154,28.955,34.5606,,,,,,,,,
234,2015/8/25,3:04:00,31-24.7600N,137-19.8900E,153,28.957,34.5522,,,,,,,,,
235,2015/8/25,3:05:00,31-24.6100N,137-19.9700E,153,28.966,34.5485,,,,,,,,,
236,2015/8/25,3:06:00,31-24.4600N,137-20.0500E,153,28.978,34.5468,,,,,,,,,
237,2015/8/25,3:07:00,31-24.3100N,137-20.1400E,153,28.99,34.5436,,,,,,,,,
238,2015/8/25,3:08:00,31-24.1600N,137-20.2300E,152,28.991,34.5498,,,,,,,,,
239,2015/8/25,3:09:00,31-24.0200N,137-20.3200E,151,28.986,34.5482,,,,,,,,,
240,2015/8/25,3:10:00,31-23.8700N,137-20.4100E,153,28.973,34.5422,,,,,,,,,
241,2015/8/25,3:11:00,31-23.7000N,137-20.4900E,158,28.961,34.5353,,,,,,,,,
242,2015/8/25,3:12:00,31-23.5600N,137-20.5700E,153,28.943,34.531,,,,,,,,,
243,2015/8/25,3:13:00,31-23.4100N,137-20.6600E,151,28.918,34.529,,,,,,,,,
244,2015/8/25,3:14:00,31-23.2600N,137-20.7500E,153,28.895,34.5229,,,,,,,,,
245,2015/8/25,3:15:00,31-23.1100N,137-20.8300E,154,28.876,34.5198,,,,,,,,,
246,2015/8/25,3:16:00,31-22.9600N,137-20.9200E,151,28.849,34.4956,,,,,,,,,
247,2015/8/25,3:17:00,31-22.8200N,137-21.0000E,153,28.793,34.5125,,,,,,,,,
248,2015/8/25,3:18:00,31-22.6700N,137-21.0800E,156,28.752,34.5035,,,,,,,,,
249,2015/8/25,3:19:00,31-22.5300N,137-21.1700E,153,28.723,34.4561,,,,,,,,,
250,2015/8/25,3:20:00,31-22.3800N,137-21.2500E,154,28.734,34.4722,,,,,,,,,
251,2015/8/25,3:21:00,31-22.2400N,137-21.3400E,154,28.76,34.4575,,,,,,,,,
252,2015/8/25,3:22:00,31-22.0900N,137-21.4100E,155,28.773,34.4677,,,,,,,,,
253,2015/8/25,3:23:00,31-21.9500N,137-21.4900E,154,28.771,34.4586,,,,,,,,,
254,2015/8/25,3:24:00,31-21.8000N,137-21.5700E,153,28.782,34.4754,,,,,,,,,
255,2015/8/25,3:25:00,31-21.6600N,137-21.6500E,156,28.807,34.4781,,,,,,,,,
256,2015/8/25,3:26:00,31-21.5200N,137-21.7300E,154,28.819,34.4743,,,,,,,,,
257,2015/8/25,3:27:00,31-21.3800N,137-21.8200E,154,28.83,34.4761,,,,,,,,,
258,2015/8/25,3:28:00,31-21.2400N,137-21.9000E,152,28.833,34.4697,,,,,,,,,
259,2015/8/25,3:29:00,31-21.1000N,137-21.9800E,154,28.83,34.4719,,,,,,,,,
260,2015/8/25,3:30:00,31-20.9500N,137-22.0600E,154,28.829,34.4675,,,,,,,,,
261,2015/8/25,3:31:00,31-20.8100N,137-22.1400E,153,28.837,34.4646,,,,,,,,,
262,2015/8/25,3:32:00,31-20.6700N,137-22.2300E,151,28.847,34.4618,,,,,,,,,
263,2015/8/25,3:33:00,31-20.5200N,137-22.3200E,154,28.848,34.4662,,,,,,,,,
264,2015/8/25,3:34:00,31-20.3800N,137-22.4000E,153,28.855,34.4499,,,,,,,,,
265,2015/8/25,3:35:00,31-20.2200N,137-22.5000E,153,28.86,34.4636,,,,,,,,,
266,2015/8/25,3:36:00,31-20.0800N,137-22.5900E,154,28.857,34.468,,,,,,,,,
267,2015/8/25,3:37:00,31-19.9200N,137-22.6700E,155,28.856,34.4627,,,,,,,,,
268,2015/8/25,3:38:00,31-19.7800N,137-22.7600E,155,28.856,34.4689,,,,,,,,,
269,2015/8/25,3:39:00,31-19.6300N,137-22.8400E,152,28.859,34.4682,,,,,,,,,
270,2015/8/25,3:40:00,31-19.4900N,137-22.9300E,151,28.861,34.4677,,,,,,,,,
271,2015/8/25,3:41:00,31-19.3400N,137-23.0100E,154,28.869,34.4671,,,,,,,,,
272,2015/8/25,3:42:00,31-19.2000N,137-23.0900E,153,28.874,34.4691,,,,,,,,,
273,2015/8/25,3:43:00,31-19.0600N,137-23.1600E,157,28.878,34.4699,,,,,,,,,
274,2015/8/25,3:44:00,31-18.9100N,137-23.2400E,158,28.884,34.4686,,,,,,,,,
275,2015/8/25,3:45:00,31-18.7700N,137-23.3100E,155,28.9,34.4723,,,,,,,,,
276,2015/8/25,3:46:00,31-18.6300N,137-23.3900E,154,28.921,34.4689,,,,,,,,,
277,2015/8/25,3:47:00,31-18.4800N,137-23.4700E,152,28.931,34.4763,,,,,,,,,
278,2015/8/25,3:48:00,31-18.3400N,137-23.5600E,152,28.94,34.4673,,,,,,,,,
279,2015/8/25,3:49:00,31-18.2000N,137-23.6500E,152,28.941,34.4815,,,,,,,,,
280,2015/8/25,3:50:00,31-18.0500N,137-23.7300E,154,28.949,34.4785,,,,,,,,,
281,2015/8/25,3:51:00,31-17.9100N,137-23.8100E,154,28.955,---,,,,,,,,,
282,2015/8/25,3:52:00,31-17.7600N,137-23.8900E,154,28.966,34.4772,,,,,,,,,
283,2015/8/25,3:53:00,31-17.6200N,137-23.9800E,155,28.972,34.4825,,,,,,,,,
284,2015/8/25,3:54:00,31-17.4700N,137-24.0600E,156,28.986,34.4833,,,,,,,,,
285,2015/8/25,3:55:00,31-17.3300N,137-24.1400E,154,28.996,34.4836,,,,,,,,,
286,2015/8/25,3:56:00,31-17.1900N,137-24.2300E,153,29.008,34.4804,,,,,,,,,
287,2015/8/25,3:57:00,31-17.0400N,137-24.3100E,149,29.012,34.4896,,,,,,,,,
288,2015/8/25,3:58:00,31-16.9000N,137-24.3900E,158,29.028,34.4918,,,,,,,,,
289,2015/8/25,3:59:00,31-16.7600N,137-24.4100E,175,29.05,34.4956,,,,,,,,,
290,2015/8/25,4:00:00,31-16.6200N,137-24.4000E,183,29.061,34.4984,,,,,,,,,
291,2015/8/25,4:01:00,31-16.4900N,137-24.4000E,182,29.07,34.4808,,,,,,,,,
292,2015/8/25,4:02:00,31-16.3500N,137-24.3800E,186,29.083,34.5091,,,,,,,,,
293,2015/8/25,4:03:00,31-16.1900N,137-24.3600E,186,29.102,34.5138,,,,,,,,,
294,2015/8/25,4:04:00,31-16.0500N,137-24.3400E,186,29.115,34.5213,,,,,,,,,
295,2015/8/25,4:05:00,31-15.8900N,137-24.3200E,184,29.12,34.5284,,,,,,,,,
296,2015/8/25,4:06:00,31-15.7400N,137-24.2900E,188,29.122,34.5334,,,,,,,,,
297,2015/8/25,4:07:00,31-15.5900N,137-24.2700E,185,29.134,34.5207,,,,,,,,,
298,2015/8/25,4:08:00,31-15.4500N,137-24.2600E,185,29.147,34.5419,,,,,,,,,
299,2015/8/25,4:09:00,31-15.2900N,137-24.2400E,186,29.151,34.5508,,,,,,,,,
300,2015/8/25,4:10:00,31-15.1400N,137-24.2200E,185,29.165,34.5566,,,,,,,,,
301,2015/8/25,4:11:00,31-14.9900N,137-24.2000E,187,29.172,34.5622,,,,,,,,,
302,2015/8/25,4:12:00,31-14.8400N,137-24.1900E,183,29.164,34.5749,,,,,,,,,
303,2015/8/25,4:13:00,31-14.6900N,137-24.1800E,179,29.152,34.5787,,,,,,,,,
304,2015/8/25,4:14:00,31-14.5500N,137-24.1700E,181,29.151,34.5735,,,,,,,,,
305,2015/8/25,4:15:00,31-14.4000N,137-24.1600E,183,29.167,34.5719,,,,,,,,,
306,2015/8/25,4:16:00,31-14.2500N,137-24.1500E,185,29.185,34.5905,,,,,,,,,
307,2015/8/25,4:17:00,31-14.1100N,137-24.1300E,183,29.194,34.6009,,,,,,,,,
308,2015/8/25,4:18:00,31-13.9600N,137-24.1200E,183,29.19,34.5959,,,,,,,,,
309,2015/8/25,4:19:00,31-13.8100N,137-24.1100E,183,29.192,34.608,,,,,,,,,
310,2015/8/25,4:20:00,31-13.6600N,137-24.0900E,184,29.192,34.6072,,,,,,,,,
311,2015/8/25,4:21:00,31-13.5200N,137-24.0800E,186,29.198,34.6095,,,,,,,,,
312,2015/8/25,4:22:00,31-13.3700N,137-24.0600E,187,29.201,34.6009,,,,,,,,,
313,2015/8/25,4:23:00,31-13.2200N,137-24.0400E,186,29.212,34.6167,,,,,,,,,
314,2015/8/25,4:24:00,31-13.0700N,137-24.0300E,185,29.215,34.5957,,,,,,,,,
315,2015/8/25,4:25:00,31-12.9200N,137-24.0200E,184,29.221,34.6146,,,,,,,,,
316,2015/8/25,4:26:00,31-12.7700N,137-24.0000E,184,29.219,34.6127,,,,,,,,,
317,2015/8/25,4:27:00,31-12.6200N,137-23.9900E,184,29.222,34.6123,,,,,,,,,
318,2015/8/25,4:28:00,31-12.4600N,137-23.9700E,186,29.234,34.6091,,,,,,,,,
319,2015/8/25,4:29:00,31-12.3100N,137-23.9500E,185,29.242,34.6096,,,,,,,,,
320,2015/8/25,4:30:00,31-12.1700N,137-23.9400E,181,29.246,34.605,,,,,,,,,
321,2015/8/25,4:31:00,31-12.0200N,137-23.9300E,184,29.252,34.6096,,,,,,,,,
322,2015/8/25,4:32:00,31-11.8700N,137-23.9100E,186,29.26,34.5999,,,,,,,,,
323,2015/8/25,4:33:00,31-11.7200N,137-23.8900E,185,29.261,34.6095,,,,,,,,,
324,2015/8/25,4:34:00,31-11.5700N,137-23.8800E,185,29.261,34.6077,,,,,,,,,
325,2015/8/25,4:35:00,31-11.4300N,137-23.8600E,181,29.264,34.6097,,,,,,,,,
326,2015/8/25,4:36:00,31-11.2800N,137-23.8500E,183,29.271,34.6083,,,,,,,,,
327,2015/8/25,4:37:00,31-11.1300N,137-23.8400E,185,29.277,34.5972,,,,,,,,,
328,2015/8/25,4:38:00,31-10.9800N,137-23.8200E,186,29.274,34.6099,,,,,,,,,
329,2015/8/25,4:39:00,31-10.8300N,137-23.8000E,187,29.275,34.6049,,,,,,,,,
330,2015/8/25,4:40:00,31-10.6800N,137-23.7900E,185,29.269,34.5884,,,,,,,,,
331,2015/8/25,4:41:00,31-10.5300N,137-23.7600E,189,29.27,34.6091,,,,,,,,,
332,2015/8/25,4:42:00,31-10.3900N,137-23.7400E,187,29.265,34.5983,,,,,,,,,
333,2015/8/25,4:43:00,31-10.2300N,137-23.7200E,185,29.256,34.6053,,,,,,,,,
334,2015/8/25,4:44:00,31-10.0800N,137-23.7000E,184,29.251,34.6017,,,,,,,,,
335,2015/8/25,4:45:00,31-09.9300N,137-23.6800E,184,29.246,34.5991,,,,,,,,,
336,2015/8/25,4:46:00,31-09.7700N,137-23.6600E,186,29.241,34.5797,,,,,,,,,